PGT922 EBCI-LTFJ

Flight info

Callsign PGT922
Flight time N/A
Altitude 33000
Route SOPO1X SOPOK Y863 OGLOR DCT EMGOD L607 ULNOK DCT VIBOM DCT NOMBO DCT RIDAR DCT GOMIG DCT GOLVA/N0460F350 DCT OBUTI DCT LAKIK DCT SMI DCT OKTAS DCT OKLOP DCT ETIDA DCT BUFRA DCT ADORU UM19 IBODU IBOD1H
Aircraft B738/M-SDE2E3FGHIRWXY/LB1

Departure

Time 2026-04-29 19:30
Airport Brussels South Charleroi Airport (EBCI)

Arrival

Time N/A
Airport Istanbul Sabiha Gökçen International Airport (LTFJ)
Time Latitude Longitude Altitude Speed Heading
2026-04-29 18:24 50.46928 4.47286 584 ft 0 kts 335°
2026-04-29 18:50 50.46924 4.47290 584 ft 0 kts 335°
2026-04-29 18:53 50.46928 4.47286 584 ft 0 kts 335°
2026-04-29 19:17 50.46928 4.47287 584 ft 1 kts 335°
2026-04-29 19:17 50.46906 4.47302 583 ft 4 kts 335°
2026-04-29 19:18 50.46888 4.47316 583 ft 4 kts 315°
2026-04-29 19:18 50.46880 4.47333 584 ft 4 kts 262°
2026-04-29 19:18 50.46891 4.47378 584 ft 2 kts 245°
2026-04-29 19:18 50.46892 4.47379 584 ft 1 kts 245°
2026-04-29 19:22 50.46891 4.47378 584 ft 0 kts 245°
2026-04-29 19:23 50.46884 4.47354 584 ft 6 kts 241°
2026-04-29 19:23 50.46847 4.47325 586 ft 6 kts 177°
2026-04-29 19:23 50.46807 4.47349 587 ft 6 kts 156°
2026-04-29 19:23 50.46767 4.47341 589 ft 6 kts 226°
2026-04-29 19:24 50.46734 4.47241 591 ft 16 kts 245°
2026-04-29 19:24 50.46676 4.47043 592 ft 21 kts 245°
2026-04-29 19:24 50.46616 4.46833 592 ft 21 kts 245°
2026-04-29 19:24 50.46557 4.46631 590 ft 20 kts 245°
2026-04-29 19:25 50.46501 4.46436 588 ft 19 kts 245°
2026-04-29 19:25 50.46445 4.46247 590 ft 19 kts 246°
2026-04-29 19:25 50.46391 4.46063 592 ft 18 kts 245°
2026-04-29 19:25 50.46340 4.45885 596 ft 18 kts 245°
2026-04-29 19:26 50.46290 4.45712 596 ft 17 kts 245°
2026-04-29 19:26 50.46242 4.45548 599 ft 16 kts 245°
2026-04-29 19:26 50.46194 4.45383 597 ft 17 kts 246°
2026-04-29 19:26 50.46147 4.45221 598 ft 17 kts 245°
2026-04-29 19:27 50.46094 4.45037 595 ft 19 kts 246°
2026-04-29 19:27 50.46039 4.44850 596 ft 19 kts 245°
2026-04-29 19:27 50.45985 4.44667 596 ft 18 kts 246°
2026-04-29 19:27 50.45933 4.44489 599 ft 18 kts 242°
2026-04-29 19:28 50.45863 4.44336 598 ft 17 kts 232°
2026-04-29 19:28 50.45787 4.44183 596 ft 18 kts 232°
2026-04-29 19:28 50.45708 4.44025 593 ft 12 kts 231°
2026-04-29 19:28 50.45654 4.43980 593 ft 9 kts 171°
2026-04-29 19:29 50.45628 4.44057 593 ft 9 kts 77°
2026-04-29 19:29 50.45680 4.44237 593 ft 45 kts 65°
2026-04-29 19:29 50.45904 4.45006 592 ft 110 kts 65°
2026-04-29 19:29 50.46296 4.46367 635 ft 159 kts 64°
2026-04-29 19:30 50.46772 4.47899 1300 ft 160 kts 63°
2026-04-29 19:30 50.47478 4.49282 2078 ft 170 kts 36°
2026-04-29 19:30 50.48675 4.49884 2627 ft 193 kts 30°
2026-04-29 19:30 50.49616 4.51349 2824 ft 200 kts 68°
2026-04-29 19:31 50.50290 4.53338 3280 ft 213 kts 62°
2026-04-29 19:31 50.51119 4.55293 3854 ft 219 kts 59°
2026-04-29 19:31 50.52041 4.57323 3970 ft 241 kts 58°
2026-04-29 19:31 50.53046 4.59477 3977 ft 247 kts 57°
2026-04-29 19:32 50.54081 4.61611 3992 ft 246 kts 56°
2026-04-29 19:32 50.55114 4.63712 4034 ft 244 kts 56°
2026-04-29 19:32 50.56161 4.65841 4459 ft 247 kts 56°
2026-04-29 19:32 50.57191 4.67935 5257 ft 252 kts 56°
2026-04-29 19:33 50.58299 4.70187 6095 ft 256 kts 56°
2026-04-29 19:33 50.59398 4.72424 6912 ft 260 kts 55°
2026-04-29 19:33 50.60511 4.74687 7699 ft 262 kts 55°
2026-04-29 19:33 50.61628 4.76963 8529 ft 263 kts 54°
2026-04-29 19:34 50.62521 4.79446 9315 ft 263 kts 78°
2026-04-29 19:34 50.62462 4.82307 10125 ft 265 kts 102°
2026-04-29 19:34 50.62092 4.84159 10571 ft 271 kts 109°
2026-04-29 19:34 50.60986 4.87936 11054 ft 296 kts 114°
2026-04-29 19:35 50.60020 4.90915 11322 ft 316 kts 114°
2026-04-29 19:35 50.58995 4.94040 11545 ft 335 kts 114°
2026-04-29 19:35 50.57895 4.97407 11705 ft 356 kts 114°
2026-04-29 19:35 50.56741 5.00965 11933 ft 372 kts 114°
2026-04-29 19:36 50.55561 5.04618 12408 ft 379 kts 114°
2026-04-29 19:36 50.54366 5.08336 13018 ft 383 kts 114°
2026-04-29 19:36 50.53162 5.12087 13636 ft 387 kts 114°
2026-04-29 19:36 50.51941 5.15897 14120 ft 393 kts 114°
2026-04-29 19:37 50.50705 5.19755 14617 ft 398 kts 114°
2026-04-29 19:37 50.50278 5.21086 14814 ft 398 kts 114°
2026-04-29 19:37 50.48649 5.26258 15570 ft 400 kts 110°
2026-04-29 19:37 50.47686 5.30649 16135 ft 401 kts 104°
2026-04-29 19:38 50.46980 5.34492 16595 ft 404 kts 103°
2026-04-29 19:38 50.46257 5.38595 17090 ft 407 kts 103°
2026-04-29 19:38 50.45272 5.44284 17752 ft 411 kts 102°
2026-04-29 19:38 50.44526 5.48625 18235 ft 414 kts 102°
2026-04-29 19:39 50.44022 5.51567 18549 ft 416 kts 102°
2026-04-29 19:39 50.43267 5.55971 18995 ft 419 kts 102°
2026-04-29 19:39 50.42520 5.60303 19439 ft 420 kts 102°
2026-04-29 19:39 50.41768 5.64651 19901 ft 421 kts 102°
2026-04-29 19:40 50.40995 5.69121 20356 ft 423 kts 102°
2026-04-29 19:40 50.40225 5.73568 20817 ft 425 kts 102°
2026-04-29 19:40 50.39449 5.78051 21248 ft 426 kts 102°
2026-04-29 19:40 50.38676 5.82522 21666 ft 428 kts 102°
2026-04-29 19:41 50.37913 5.86937 22073 ft 430 kts 102°
2026-04-29 19:41 50.37127 5.91482 22489 ft 432 kts 102°
2026-04-29 19:41 50.36345 5.96001 22882 ft 433 kts 102°
2026-04-29 19:41 50.35552 6.00584 23292 ft 435 kts 102°
2026-04-29 19:42 50.34759 6.05101 23653 ft 438 kts 103°
2026-04-29 19:42 50.34162 6.08135 23893 ft 440 kts 105°
2026-04-29 19:42 50.32750 6.14306 24257 ft 443 kts 107°
2026-04-29 19:42 50.31669 6.18792 24250 ft 444 kts 107°
2026-04-29 19:43 50.30614 6.23178 24253 ft 441 kts 107°
2026-04-29 19:43 50.29547 6.27672 24255 ft 441 kts 107°
2026-04-29 19:43 50.28485 6.32209 24262 ft 442 kts 107°
2026-04-29 19:43 50.27448 6.36674 24279 ft 442 kts 107°
2026-04-29 19:44 50.26372 6.41201 24249 ft 438 kts 108°
2026-04-29 19:44 50.25225 6.45557 24272 ft 429 kts 109°
2026-04-29 19:44 50.24046 6.49824 24363 ft 433 kts 109°
2026-04-29 19:44 50.22829 6.54157 24744 ft 433 kts 110°
2026-04-29 19:45 50.21591 6.58556 25247 ft 431 kts 109°
2026-04-29 19:45 50.20421 6.62724 25612 ft 432 kts 109°
2026-04-29 19:45 50.19218 6.67032 25882 ft 435 kts 109°
2026-04-29 19:45 50.18014 6.71357 26174 ft 437 kts 109°
2026-04-29 19:46 50.16803 6.75711 26502 ft 438 kts 109°
2026-04-29 19:46 50.15591 6.80062 26839 ft 439 kts 109°
2026-04-29 19:46 50.14388 6.84383 27134 ft 441 kts 109°
2026-04-29 19:46 50.13162 6.88774 27457 ft 442 kts 109°
2026-04-29 19:47 50.11936 6.93157 27703 ft 444 kts 109°
2026-04-29 19:47 50.10689 6.97609 28021 ft 445 kts 109°
2026-04-29 19:47 50.09449 7.02022 28455 ft 443 kts 109°
2026-04-29 19:47 50.08213 7.06406 28948 ft 440 kts 109°
2026-04-29 19:48 50.06985 7.10758 29382 ft 438 kts 109°
2026-04-29 19:48 50.06177 7.13617 29621 ft 438 kts 109°
2026-04-29 19:48 50.04539 7.19411 30097 ft 437 kts 109°
2026-04-29 19:48 50.03320 7.23710 30465 ft 436 kts 109°
2026-04-29 19:49 50.02089 7.28044 30770 ft 435 kts 109°
2026-04-29 19:49 50.00881 7.32289 31086 ft 435 kts 109°
2026-04-29 19:49 49.99656 7.36589 31365 ft 435 kts 109°
2026-04-29 19:49 49.98435 7.40866 31651 ft 435 kts 109°
2026-04-29 19:50 49.97247 7.45020 31914 ft 435 kts 109°
2026-04-29 19:50 49.95988 7.49417 32170 ft 435 kts 109°
2026-04-29 19:50 49.94770 7.53661 32428 ft 436 kts 109°
2026-04-29 19:50 49.93516 7.58023 32656 ft 437 kts 109°
2026-04-29 19:51 49.92277 7.62326 32872 ft 438 kts 109°
2026-04-29 19:51 49.91040 7.66613 33165 ft 438 kts 109°
2026-04-29 19:51 49.89786 7.70950 33286 ft 440 kts 109°
2026-04-29 19:52 49.87276 7.79609 33293 ft 440 kts 109°
2026-04-29 19:52 49.84779 7.88185 33291 ft 438 kts 109°
2026-04-29 19:53 49.82282 7.96732 33291 ft 436 kts 109°
2026-04-29 19:53 49.79779 8.05276 33290 ft 435 kts 109°
2026-04-29 19:54 49.75896 8.17822 33308 ft 437 kts 112°
2026-04-29 19:54 49.72949 8.26103 33293 ft 439 kts 113°
2026-04-29 19:55 49.69987 8.34355 33286 ft 441 kts 113°
2026-04-29 19:55 49.67050 8.42613 33284 ft 441 kts 113°
2026-04-29 19:56 49.64113 8.50900 33267 ft 443 kts 113°
2026-04-29 19:56 49.61147 8.59262 33273 ft 444 kts 113°
2026-04-29 19:57 49.58681 8.66191 33271 ft 445 kts 113°
2026-04-29 19:57 49.55209 8.75913 33276 ft 446 kts 113°
2026-04-29 19:58 49.52208 8.84283 33268 ft 446 kts 113°
2026-04-29 19:58 49.49260 8.92479 33270 ft 446 kts 114°
2026-04-29 19:59 49.46241 9.00847 33283 ft 447 kts 113°
2026-04-29 19:59 49.43258 9.09092 33263 ft 446 kts 113°
2026-04-29 20:00 49.40244 9.17393 33265 ft 446 kts 113°
2026-04-29 20:00 49.37208 9.25728 33267 ft 446 kts 114°
2026-04-29 20:01 49.34180 9.34015 33291 ft 446 kts 114°
2026-04-29 20:01 49.31153 9.42272 33282 ft 448 kts 114°
2026-04-29 20:02 49.28093 9.50593 33274 ft 449 kts 114°
2026-04-29 20:02 49.25534 9.57529 33274 ft 450 kts 114°
2026-04-29 20:03 49.21925 9.67284 33282 ft 451 kts 114°
2026-04-29 20:03 49.18828 9.75622 33293 ft 452 kts 114°
2026-04-29 20:04 49.15730 9.83937 33295 ft 453 kts 114°
2026-04-29 20:04 49.12616 9.92265 33294 ft 454 kts 114°
2026-04-29 20:05 49.09471 10.00650 33294 ft 454 kts 114°
2026-04-29 20:05 49.06204 10.08924 33276 ft 459 kts 122°
2026-04-29 20:06 49.01805 10.16066 33301 ft 465 kts 130°
2026-04-29 20:06 48.97183 10.22917 33294 ft 467 kts 130°
2026-04-29 20:07 48.92592 10.29777 33306 ft 468 kts 130°
2026-04-29 20:07 48.87958 10.36754 33300 ft 469 kts 130°
2026-04-29 20:08 48.84112 10.42547 33308 ft 469 kts 130°
2026-04-29 20:08 48.78697 10.50678 33306 ft 469 kts 131°
2026-04-29 20:09 48.74080 10.57586 33303 ft 471 kts 131°
2026-04-29 20:09 48.69415 10.64544 33306 ft 471 kts 131°
2026-04-29 20:10 48.64738 10.71501 33297 ft 472 kts 131°
2026-04-29 20:10 48.60219 10.78643 33292 ft 467 kts 122°
2026-04-29 20:11 48.57125 10.87119 33298 ft 457 kts 105°
2026-04-29 20:11 48.55100 10.96203 33293 ft 457 kts 104°
2026-04-29 20:12 48.53087 11.05263 33277 ft 459 kts 105°
2026-04-29 20:12 48.51013 11.14378 33274 ft 462 kts 105°
2026-04-29 20:13 48.48871 11.23521 33276 ft 465 kts 109°
2026-04-29 20:13 48.45827 11.32221 33282 ft 471 kts 116°
2026-04-29 20:14 48.42570 11.40681 33286 ft 472 kts 116°
2026-04-29 20:14 48.39291 11.49260 33284 ft 473 kts 116°
2026-04-29 20:15 48.36050 11.57851 33289 ft 473 kts 116°
2026-04-29 20:15 48.32811 11.66463 33292 ft 472 kts 116°
2026-04-29 20:16 48.29599 11.74987 33301 ft 473 kts 116°
2026-04-29 20:16 48.26349 11.83578 33294 ft 473 kts 116°
2026-04-29 20:17 48.23101 11.92130 33289 ft 472 kts 116°
2026-04-29 20:17 48.19844 12.00680 33282 ft 472 kts 116°
2026-04-29 20:18 48.16575 12.09233 33279 ft 473 kts 116°
2026-04-29 20:18 48.13327 12.17709 33282 ft 473 kts 116°
2026-04-29 20:19 48.10061 12.26201 33278 ft 474 kts 117°
2026-04-29 20:19 48.06762 12.34748 33273 ft 474 kts 117°
2026-04-29 20:20 48.03546 12.43055 33271 ft 475 kts 117°
2026-04-29 20:20 48.00232 12.51591 33278 ft 475 kts 117°
2026-04-29 20:21 47.96952 12.60011 33280 ft 475 kts 117°
2026-04-29 20:21 47.93627 12.68522 33262 ft 476 kts 117°
2026-04-29 20:22 47.90282 12.77055 33286 ft 477 kts 118°
2026-04-29 20:22 47.86921 12.85601 33285 ft 479 kts 118°
2026-04-29 20:23 47.83545 12.94161 33282 ft 481 kts 118°
2026-04-29 20:23 47.80160 13.02713 33294 ft 482 kts 118°
2026-04-29 20:24 47.76752 13.11297 33296 ft 483 kts 118°
2026-04-29 20:24 47.73323 13.19906 33283 ft 484 kts 118°
2026-04-29 20:25 47.69888 13.28502 33279 ft 485 kts 118°
2026-04-29 20:25 47.66437 13.37112 33270 ft 485 kts 118°
2026-04-29 20:26 47.62976 13.45718 33276 ft 485 kts 119°
2026-04-29 20:26 47.59579 13.54137 33296 ft 486 kts 119°
2026-04-29 20:27 47.56679 13.61304 33293 ft 488 kts 119°
2026-04-29 20:27 47.52623 13.71300 33277 ft 489 kts 120°
2026-04-29 20:28 47.49106 13.79937 33271 ft 491 kts 120°
2026-04-29 20:28 47.45575 13.88581 33298 ft 490 kts 120°
2026-04-29 20:29 47.42035 13.97216 33291 ft 492 kts 120°
2026-04-29 20:29 47.38476 14.05872 33290 ft 494 kts 120°
2026-04-29 20:30 47.34931 14.14467 33288 ft 495 kts 120°
2026-04-29 20:30 47.31338 14.23151 33307 ft 496 kts 121°
2026-04-29 20:31 47.27736 14.31828 33287 ft 497 kts 121°
2026-04-29 20:31 47.24115 14.40523 33278 ft 499 kts 121°
2026-04-29 20:32 47.20517 14.49141 33264 ft 499 kts 121°
2026-04-29 20:32 47.17471 14.56409 33275 ft 499 kts 121°
2026-04-29 20:33 47.13222 14.66517 33277 ft 500 kts 121°
2026-04-29 20:33 47.09562 14.75194 33282 ft 502 kts 121°
2026-04-29 20:34 47.05875 14.83907 33280 ft 503 kts 122°
2026-04-29 20:34 47.02176 14.92624 33302 ft 502 kts 122°
2026-04-29 20:35 46.98496 15.01269 33300 ft 505 kts 122°
2026-04-29 20:35 46.94768 15.09988 33297 ft 509 kts 122°
2026-04-29 20:36 46.91015 15.18753 33294 ft 512 kts 123°
2026-04-29 20:36 46.87218 15.27588 33306 ft 514 kts 123°
2026-04-29 20:37 46.83388 15.36465 33293 ft 516 kts 123°
2026-04-29 20:37 46.79580 15.45264 33294 ft 517 kts 123°
2026-04-29 20:38 46.75720 15.54151 33475 ft 519 kts 123°
2026-04-29 20:38 46.73795 15.58575 33833 ft 517 kts 123°
2026-04-29 20:38 46.71878 15.62974 34181 ft 514 kts 124°
2026-04-29 20:39 46.69905 15.67326 34325 ft 516 kts 127°
2026-04-29 20:39 46.67788 15.71483 34599 ft 514 kts 129°
2026-04-29 20:39 46.65601 15.75571 34884 ft 512 kts 130°
2026-04-29 20:39 46.63389 15.79642 35162 ft 510 kts 130°
2026-04-29 20:40 46.61199 15.83676 35315 ft 511 kts 130°
2026-04-29 20:40 46.59002 15.87757 35301 ft 514 kts 129°
2026-04-29 20:40 46.54624 15.95963 35288 ft 511 kts 129°
2026-04-29 20:41 46.50319 16.04054 35283 ft 508 kts 129°
2026-04-29 20:41 46.46006 16.12127 35283 ft 506 kts 129°
2026-04-29 20:42 46.41686 16.20176 35288 ft 507 kts 130°
2026-04-29 20:42 46.37350 16.28342 35294 ft 517 kts 126°
2026-04-29 20:43 46.33585 16.37184 35288 ft 520 kts 121°
2026-04-29 20:43 46.29952 16.46248 35270 ft 521 kts 121°
2026-04-29 20:44 46.26284 16.55258 35276 ft 520 kts 122°
2026-04-29 20:44 46.22559 16.64230 35276 ft 520 kts 122°
2026-04-29 20:45 46.18843 16.73101 35270 ft 520 kts 122°
2026-04-29 20:45 46.15355 16.81407 35259 ft 519 kts 122°
2026-04-29 20:46 46.11617 16.90290 35250 ft 518 kts 122°
2026-04-29 20:46 46.07866 16.99178 35261 ft 518 kts 123°
2026-04-29 20:47 46.04295 17.07616 35256 ft 518 kts 123°
2026-04-29 20:47 46.00546 17.16443 35257 ft 518 kts 123°
2026-04-29 20:48 45.96772 17.25301 35249 ft 518 kts 123°
2026-04-29 20:48 45.93045 17.34024 35250 ft 519 kts 123°
2026-04-29 20:49 45.89281 17.42806 35254 ft 519 kts 123°
2026-04-29 20:49 45.85490 17.51619 35255 ft 520 kts 123°
2026-04-29 20:50 45.81684 17.60441 35264 ft 520 kts 124°
2026-04-29 20:50 45.77867 17.69261 35240 ft 520 kts 124°
2026-04-29 20:51 45.74046 17.78061 35248 ft 521 kts 124°
2026-04-29 20:51 45.70235 17.86809 35255 ft 521 kts 124°
2026-04-29 20:52 45.66397 17.95593 35259 ft 522 kts 124°
2026-04-29 20:52 45.62540 18.04387 35256 ft 522 kts 124°
2026-04-29 20:53 45.58678 18.13188 35258 ft 522 kts 124°
2026-04-29 20:53 45.54852 18.21989 35253 ft 523 kts 124°
2026-04-29 20:54 45.49123 18.35139 35256 ft 522 kts 124°
2026-04-29 20:55 45.45275 18.43912 35232 ft 522 kts 124°
2026-04-29 20:55 45.41420 18.52669 35249 ft 521 kts 124°
2026-04-29 20:56 45.37588 18.61348 35257 ft 521 kts 124°
2026-04-29 20:56 45.33730 18.70058 35250 ft 521 kts 124°
2026-04-29 20:57 45.29866 18.78757 35265 ft 520 kts 124°
2026-04-29 20:57 45.25998 18.87438 35253 ft 520 kts 124°
2026-04-29 20:58 45.22152 18.96042 35259 ft 520 kts 124°
2026-04-29 20:58 45.18273 19.04693 35251 ft 520 kts 125°
2026-04-29 20:59 45.14391 19.13328 35247 ft 519 kts 125°
2026-04-29 20:59 45.10504 19.21942 35249 ft 519 kts 125°
2026-04-29 21:00 45.06634 19.30493 35247 ft 519 kts 125°
2026-04-29 21:00 45.02747 19.39053 35252 ft 519 kts 125°
2026-04-29 21:01 44.98894 19.47674 35256 ft 520 kts 123°
2026-04-29 21:01 44.95273 19.56528 35243 ft 521 kts 122°
2026-04-29 21:02 44.91646 19.65303 35243 ft 521 kts 123°
2026-04-29 21:02 44.87930 19.74089 35241 ft 521 kts 123°
2026-04-29 21:03 44.84203 19.82827 35237 ft 521 kts 123°
2026-04-29 21:03 44.80456 19.91585 35240 ft 521 kts 123°
2026-04-29 21:04 44.76745 20.00242 35231 ft 520 kts 123°
2026-04-29 21:04 44.73022 20.08901 35230 ft 520 kts 123°
2026-04-29 21:05 44.69273 20.17593 35244 ft 520 kts 123°
2026-04-29 21:05 44.65523 20.26263 35237 ft 519 kts 123°
2026-04-29 21:06 44.61766 20.34920 35235 ft 519 kts 123°
2026-04-29 21:06 44.58026 20.43514 35246 ft 519 kts 124°
2026-04-29 21:07 44.54259 20.52143 35228 ft 519 kts 124°
2026-04-29 21:07 44.51125 20.59300 35228 ft 518 kts 124°
2026-04-29 21:08 44.46735 20.69299 35236 ft 518 kts 124°
2026-04-29 21:08 44.43034 20.77699 35218 ft 517 kts 124°
2026-04-29 21:09 44.39256 20.86253 35215 ft 516 kts 124°
2026-04-29 21:09 44.35478 20.94778 35217 ft 515 kts 124°
2026-04-29 21:10 44.31701 21.03273 35222 ft 515 kts 124°
2026-04-29 21:10 44.27945 21.11697 35217 ft 515 kts 124°
2026-04-29 21:11 44.24153 21.20176 35222 ft 515 kts 124°
2026-04-29 21:11 44.20369 21.28608 35222 ft 515 kts 124°
2026-04-29 21:12 44.16566 21.37071 35225 ft 516 kts 124°
2026-04-29 21:12 44.12780 21.45491 35218 ft 516 kts 125°
2026-04-29 21:13 44.08958 21.53961 35188 ft 517 kts 125°
2026-04-29 21:13 44.05132 21.62410 35198 ft 517 kts 125°
2026-04-29 21:14 44.01293 21.70855 35192 ft 516 kts 125°
2026-04-29 21:14 43.97489 21.79204 35199 ft 516 kts 125°
2026-04-29 21:15 43.93648 21.87608 35179 ft 515 kts 125°
2026-04-29 21:15 43.89814 21.95974 35184 ft 514 kts 125°
2026-04-29 21:16 43.85970 22.04334 35193 ft 514 kts 125°
2026-04-29 21:16 43.82149 22.12621 35177 ft 514 kts 125°
2026-04-29 21:17 43.78294 22.20960 35184 ft 514 kts 125°
2026-04-29 21:17 43.74431 22.29282 35150 ft 515 kts 126°
2026-04-29 21:18 43.70565 22.37597 35162 ft 514 kts 126°
2026-04-29 21:18 43.66692 22.45816 35178 ft 514 kts 127°
2026-04-29 21:19 43.62662 22.53960 35168 ft 513 kts 128°
2026-04-29 21:19 43.58603 22.62060 35156 ft 513 kts 127°
2026-04-29 21:20 43.54558 22.70150 35173 ft 512 kts 127°
2026-04-29 21:20 43.50546 22.78187 35170 ft 512 kts 127°
2026-04-29 21:21 43.46506 22.86267 35170 ft 512 kts 127°
2026-04-29 21:21 43.42465 22.94318 35163 ft 511 kts 127°
2026-04-29 21:22 43.38423 23.02371 35156 ft 511 kts 127°
2026-04-29 21:22 43.34381 23.10380 35165 ft 510 kts 128°
2026-04-29 21:23 43.30343 23.18355 35159 ft 511 kts 128°
2026-04-29 21:23 43.26283 23.26357 35160 ft 511 kts 128°
2026-04-29 21:24 43.22216 23.34350 35156 ft 511 kts 128°
2026-04-29 21:24 43.18153 23.42319 35163 ft 510 kts 128°
2026-04-29 21:25 43.14110 23.50228 35163 ft 510 kts 128°
2026-04-29 21:25 43.10040 23.58166 35165 ft 509 kts 128°
2026-04-29 21:26 43.05973 23.66080 35144 ft 508 kts 128°
2026-04-29 21:26 43.01906 23.73971 35156 ft 507 kts 128°
2026-04-29 21:27 42.98530 23.80507 35169 ft 507 kts 128°
2026-04-29 21:27 42.93801 23.89633 35152 ft 507 kts 128°
2026-04-29 21:28 42.89724 23.97479 35165 ft 506 kts 128°
2026-04-29 21:28 42.85648 24.05304 35146 ft 507 kts 128°
2026-04-29 21:29 42.81583 24.13086 35140 ft 507 kts 128°
2026-04-29 21:29 42.77488 24.20908 35133 ft 507 kts 128°
2026-04-29 21:30 42.73396 24.28702 35141 ft 506 kts 128°
2026-04-29 21:30 42.69300 24.36480 35128 ft 506 kts 128°
2026-04-29 21:31 42.65199 24.44248 35131 ft 506 kts 128°
2026-04-29 21:31 42.61117 24.51959 35123 ft 507 kts 128°
2026-04-29 21:32 42.56998 24.59718 35125 ft 507 kts 128°
2026-04-29 21:32 42.52876 24.67468 35107 ft 507 kts 128°
2026-04-29 21:33 42.49329 24.75709 35128 ft 510 kts 115°
2026-04-29 21:33 42.46485 24.84490 35102 ft 511 kts 114°
2026-04-29 21:34 42.43907 24.93444 35143 ft 511 kts 109°
2026-04-29 21:34 42.41911 25.02691 35151 ft 512 kts 103°